SCP
0 0 0 0 0 0 0 0 0 0 0 0 0 0 0 0 0 0 0 0 0 0 0 0 0 1 1 1 1 1 1 1 1 1 1 0 0 0 0 0 0 0 0
0 0 0 0 0 0 0 0 0 0 0 0 0 0 0 0 0 0 0 0 0 0 0 0 0 1 1 1 1 1 1 1 1 1 1 1 0 0 0 0 0 0 0
0 0 0 0 0 0 0 0 0 0 0 0 0 0 0 0 0 0 0 0 0 0 0 0 0 0 1 1 1 1 1 1 1 1 1 1 1 0 0 0 0 0 0
0 0 0 0 0 0 0 0 0 0 0 0 0 0 0 0 0 0 0 0 0 0 0 0 0 0 0 1 1 1 1 1 1 1 1 1 1 1 0 0 0 0 0
0 0 0 0 0 0 0 0 0 0 0 0 0 0 0 0 0 0 0 0 0 0 0 0 0 0 0 0 0 0 1 1 1 1 1 1 1 1 1 0 0 0 0
0 0 0 0 0 0 0 0 0 0 0 0 0 0 0 0 0 0 0 0 0 0 0 0 0 0 0 0 0 0 0 1 1 1 1 1 1 1 1 0 0 0 0
0 0 0 0 0 0 0 0 0 0 0 0 0 0 0 0 0 0 0 0 0 0 0 0 0 0 0 0 0 0 0 0 1 1 1 1 1 1 1 0 0 0 0
0 0 0 0 0 0 0 0 0 0 0 0 0 0 0 0 0 0 0 0 0 0 0 0 0 0 0 0 0 0 0 0 0 1 1 1 1 1 1 1 0 0 0
0 0 0 0 0 0 0 0 0 0 0 0 0 0 0 0 0 0 0 0 0 0 0 0 0 0 0 0 0 0 0 0 0 0 1 1 1 1 1 1 0 0 0
0 0 0 0 0 0 0 0 0 0 0 0 0 0 0 0 0 0 0 0 0 0 0 0 0 0 0 0 0 0 0 0 0 0 0 1 1 1 1 1 1 0 0
0 0 0 0 0 0 0 0 0 0 0 0 0 0 0 0 0 0 0 0 0 0 0 0 0 0 0 0 0 0 0 0 0 0 0 0 0 1 1 1 1 0 0
0 0 0 0 0 0 0 0 0 0 0 0 0 0 0 0 0 0 0 0 0 0 0 0 0 0 0 0 0 0 0 0 0 0 0 0 0 0 1 1 1 0 0
0 0 0 0 0 0 0 0 0 0 0 0 0 0 0 0 0 0 0 0 0 0 0 0 0 0 0 0 0 0 0 0 0 0 0 0 0 0 0 0 0 0 0
0 0 0 0 0 0 0 0 0 0 0 0 0 0 0 0 0 0 0 0 0 0 0 0 0 0 0 0 0 0 0 0 0 0 0 0 0 0 0 0 0 0 0
0 0 0 0 0 0 0 0 0 0 0 0 0 0 0 0 0 0 0 0 0 0 0 0 0 0 0 0 0 0 0 0 0 0 0 0 0 0 0 0 0 0 0
0 0 0 0 0 0 0 0 0 0 0 0 0 0 0 0 0 0 0 0 0 0 0 0 0 0 0 0 0 0 0 0 0 0 0 0 0 0 0 0 0 0 0
0 0 0 0 0 0 0 0 0 0 0 0 0 0 0 0 0 0 0 0 0 0 0 0 0 0 0 0 0 0 0 0 0 0 0 0 0 0 0 0 0 0 0
0 0 0 0 0 0 0 0 0 0 0 0 0 0 0 0 0 0 0 0 0 0 0 0 0 0 0 0 0 0 0 0 0 0 0 0 0 0 0 0 0 0 0
0 0 0 0 0 0 0 0 0 0 0 0 0 0 0 0 0 0 0 0 0 0 0 0 0 0 0 0 0 0 0 0 0 0 0 0 0 0 0 0 0 0 0
0 0 0 0 0 0 0 0 0 0 0 0 0 0 0 0 0 0 0 0 0 0 0 0 0 0 0 0 0 0 0 0 0 0 0 0 0 0 0 0 0 0 0
0 0 0 0 0 0 0 0 0 0 0 0 0 0 0 0 0 0 0 0 0 0 0 0 0 0 0 0 0 0 0 0 0 0 0 0 0 0 0 0 0 0 0
0 0 0 0 0 0 0 0 0 0 0 0 0 0 0 0 0 0 0 0 0 0 0 0 0 0 0 0 0 0 0 0 0 0 0 0 0 0 0 0 0 0 0
0 0 0 0 0 0 0 0 0 0 0 0 0 0 0 0 0 0 0 0 0 0 0 0 0 0 0 0 0 0 0 0 0 0 0 0 0 0 0 0 0 0 0
0 0 0 0 0 0 0 0 0 0 0 0 0 0 0 0 0 0 0 0 0 0 0 0 0 0 0 0 0 0 0 0 0 0 0 0 0 0 0 0 0 0 0
0 0 0 0 0 0 0 0 0 0 0 0 0 0 0 0 0 0 0 0 0 0 0 0 -0 -0 0 0 0 0 0 0 0 0 0 0 0 0 0 0 0 0 0
0 0 0 0 0 0 0 0 0 0 0 0 0 0 0 0 0 0 0 0 0 0 0 -0 -0 -0 -0 0 0 0 0 0 0 0 0 0 0 0 0 0 0 0 0
Wind_Speed
3 4 6 7 8 9 9 9 10 10 8 7 7 7 7 7 6 5 7 7 7 7 7 6 6 6 6 6 7 6 6 5 4 4 4 5 6 6 5 5 6 7 6
4 4 6 7 9 9 9 10 10 10 9 7 7 6 7 6 6 5 6 7 7 6 6 7 5 6 5 7 7 7 5 4 5 4 3 4 4 5 6 5 5 6 6
6 6 7 8 8 9 9 8 10 10 9 9 7 7 6 5 5 5 5 6 6 6 6 7 6 5 6 6 7 7 8 6 6 5 4 4 5 4 4 6 6 6 5
4 5 7 8 8 8 8 9 9 10 9 9 8 9 7 7 8 6 6 7 6 5 5 6 6 6 5 6 6 7 6 7 6 5 5 4 2 3 4 4 5 6 6
3 5 6 7 7 8 8 8 9 9 9 9 8 8 7 7 6 7 7 7 6 5 5 5 5 5 5 6 6 6 7 6 7 6 5 5 4 4 3 4 5 4 5
3 4 5 5 6 7 7 7 8 9 9 9 8 8 9 9 8 8 7 6 5 4 5 4 5 5 5 5 6 6 7 7 7 6 6 5 5 5 4 4 4 5 4
3 4 5 6 6 7 7 8 8 8 9 9 9 9 9 9 8 8 7 7 5 4 5 5 5 4 5 5 5 6 6 7 7 7 6 6 6 4 3 3 3 4 3
3 4 4 5 6 7 7 7 8 8 8 8 9 8 8 6 6 7 7 6 5 5 6 5 4 5 5 5 5 5 6 6 7 8 7 6 6 5 5 4 4 4 4
3 3 4 5 5 6 6 7 7 8 8 8 9 8 9 8 8 8 7 6 6 6 6 5 5 4 4 4 4 4 5 5 6 7 8 6 5 5 5 5 5 5 5
4 3 3 4 5 5 5 6 6 7 7 7 7 7 8 8 8 8 8 8 8 7 6 6 5 4 3 3 4 4 4 5 5 5 7 7 6 5 6 6 6 6 5
4 3 3 4 4 4 4 5 5 6 6 7 7 8 8 8 8 7 8 8 7 7 6 6 5 5 4 3 3 4 4 5 5 6 6 7 7 5 5 6 6 6 5
4 4 4 4 4 4 4 4 5 5 5 6 7 7 7 8 8 8 8 8 8 7 6 6 5 5 4 3 3 3 3 3 5 5 6 6 5 7 5 5 6 5 6
5 4 4 4 4 4 4 4 4 5 5 5 6 7 7 8 9 9 9 9 8 8 7 6 5 5 5 4 3 2 3 3 3 4 5 5 5 6 5 5 5 5 5
5 5 4 4 4 4 4 4 4 4 4 5 5 6 7 8 8 8 8 9 8 8 7 6 6 5 5 4 4 3 2 2 2 3 3 4 4 5 5 5 6 5 6
6 6 5 4 4 3 3 3 3 3 4 4 5 6 7 7 7 8 8 8 8 7 7 6 6 6 5 5 6 4 2 1 2 2 3 2 2 2 3 3 5 6 6
6 6 5 4 4 3 3 2 3 3 3 4 5 5 6 6 7 7 8 8 8 8 8 7 7 6 5 8 8 6 2 1 1 1 1 2 3 4 4 2 2 3 5
6 6 5 4 3 3 2 2 3 2 3 4 4 4 5 5 6 7 7 7 7 7 7 7 7 7 7 8 8 7 4 2 1 1 0 0 1 3 4 5 5 3 3
6 6 5 4 4 2 2 2 2 2 3 3 3 3 4 5 5 6 7 7 6 6 6 7 7 7 8 9 8 7 4 3 3 2 1 1 0 1 1 3 3 2 2
5 5 5 4 4 3 2 3 2 2 2 2 3 3 3 4 5 6 6 6 6 6 6 6 6 6 6 9 9 8 3 3 3 3 3 2 1 2 0 3 4 4 3
4 5 5 5 5 4 3 4 3 3 3 2 2 2 3 4 4 5 5 5 4 5 5 5 5 6 6 8 9 9 3 3 3 3 3 4 3 2 1 3 4 4 4
5 5 5 5 5 4 4 5 4 3 2 2 2 3 3 3 4 4 4 4 4 4 4 4 4 5 6 6 8 9 4 3 2 2 3 3 4 3 2 1 2 3 3
5 6 6 5 5 5 6 6 5 3 3 3 4 4 3 3 3 3 4 4 4 4 4 3 3 3 3 5 6 8 7 6 3 2 2 3 4 4 3 2 5 4 2
4 5 6 6 6 6 6 7 5 4 5 5 5 5 4 3 3 4 4 3 3 3 3 3 3 2 2 2 2 3 5 5 3 3 5 5 3 2 4 5 3 3 3
3 4 5 6 6 6 7 7 6 5 6 6 6 5 5 5 4 3 3 3 3 3 3 3 3 3 2 2 2 2 1 1 1 1 3 3 3 2 3 4 3 1 1
2 3 4 5 6 6 6 6 6 7 8 8 7 6 6 5 5 4 4 4 4 3 4 4 3 3 3 3 5 5 3 3 2 2 1 1 1 2 2 2 2 2 3
1 2 3 4 6 5 6 5 6 7 8 8 7 6 5 5 5 5 5 7 7 5 7 7 7 4 3 2 3 4 4 4 4 3 2 1 1 2 2 2 2 2 3
Wind_Direction
332 348 344 346 342 346 346 347 344 344 342 338 332 329 327 321 316 311 309 299 291 286 278 273 263 250 244 239 232 230 221 217 208 208 217 219 224 223 220 232 227 218 205
316 344 340 346 347 348 348 347 348 345 344 340 328 318 318 313 318 316 314 310 300 293 282 272 267 253 248 241 233 225 218 215 203 196 194 207 209 217 211 213 222 222 201
318 339 344 345 346 350 348 345 345 342 344 340 333 329 327 315 324 326 322 318 310 299 289 279 270 262 256 246 236 226 220 215 209 206 196 199 210 184 198 210 212 218 208
310 331 338 343 347 349 345 343 344 343 344 340 340 339 332 329 329 323 320 318 314 307 294 282 271 261 256 253 245 234 230 222 213 208 218 227 213 182 180 199 208 211 210
310 325 336 340 343 347 346 341 341 343 346 343 342 331 335 330 327 325 326 324 324 315 303 289 274 263 256 252 250 246 237 230 224 211 203 208 216 221 194 186 188 201 211
302 318 331 332 340 345 342 341 342 346 345 341 341 343 338 334 333 333 331 327 323 318 321 307 286 270 261 254 249 246 239 234 228 222 212 201 196 201 199 193 188 193 199
297 319 329 332 339 340 342 340 343 344 346 344 347 348 343 335 333 334 331 326 323 323 325 316 301 288 274 264 255 249 243 234 228 224 220 218 217 202 199 204 196 192 184
291 312 323 325 328 333 338 341 342 342 345 344 346 345 343 336 334 333 328 324 319 315 313 310 303 294 282 269 256 249 241 233 230 227 222 220 219 207 202 205 201 193 194
274 295 314 320 325 329 336 338 336 340 344 343 343 345 346 343 338 334 332 329 324 319 321 315 306 295 284 272 260 250 243 237 229 228 224 221 217 208 208 208 209 203 202
257 278 301 314 321 327 328 334 336 337 341 341 343 344 343 344 342 338 343 340 334 332 326 322 319 309 295 274 262 259 244 237 231 228 227 224 220 210 210 211 214 217 217
249 274 293 309 315 313 317 328 336 339 342 341 343 344 349 348 349 351 348 342 339 339 334 330 326 324 315 289 263 257 245 239 234 227 223 222 220 216 211 209 210 211 211
240 258 281 294 302 311 319 329 338 342 342 338 339 345 346 350 353 357 353 348 348 345 342 339 335 334 326 308 279 265 250 233 235 231 225 222 213 213 212 207 207 206 205
229 245 264 284 297 306 311 323 335 338 337 335 336 341 350 353 354 354 355 352 351 349 348 346 345 341 334 326 308 287 257 228 231 232 228 224 217 210 204 204 201 199 199
227 240 257 271 283 294 302 315 330 336 334 334 334 344 350 351 349 353 354 354 353 350 349 353 352 349 346 344 337 317 281 243 235 235 231 221 218 218 212 206 203 200 200
228 234 247 265 276 285 291 303 319 327 331 331 337 345 346 350 351 354 356 358 355 354 358 1 360 2 358 3 348 329 312 265 231 221 219 208 210 228 237 227 208 199 199
227 230 237 251 267 279 292 300 307 321 324 331 342 347 343 352 353 357 358 360 359 359 4 4 3 6 15 13 359 339 332 314 262 227 205 183 188 184 189 201 226 223 209
224 226 231 238 256 280 300 305 309 313 315 332 342 345 348 352 354 358 359 359 2 6 4 5 4 6 20 16 7 360 347 8 6 348 249 190 158 193 183 168 186 197 215
218 217 222 222 231 234 241 270 272 279 308 330 339 346 345 349 352 358 359 357 360 5 1 3 5 7 19 18 11 356 1 29 28 23 24 9 62 124 184 175 174 169 178
210 209 215 214 222 225 236 247 253 263 284 311 324 338 339 342 346 353 356 358 355 358 1 3 1 5 16 19 8 351 17 33 34 36 32 19 42 72 65 192 168 157 138
200 201 203 216 222 216 220 246 262 268 276 287 300 317 327 327 332 339 343 350 350 350 352 3 359 5 15 24 9 353 13 23 31 42 52 54 35 31 307 206 169 154 142
200 203 209 220 227 220 224 244 260 271 274 264 275 283 291 304 316 320 325 329 338 344 349 356 4 12 16 27 20 5 6 15 21 39 44 51 48 43 12 312 130 118 130
203 209 217 222 220 220 229 244 255 262 242 237 250 261 272 287 295 298 307 318 324 324 336 346 3 10 24 27 22 16 12 355 20 29 42 61 54 61 52 74 94 105 138
211 212 223 230 225 219 230 248 247 234 228 230 242 251 255 260 274 283 290 297 305 314 327 336 343 357 8 48 49 21 15 2 11 39 44 43 49 105 109 102 120 171 168
222 221 226 233 236 231 228 243 248 233 234 238 243 245 249 251 253 261 274 283 295 304 314 325 327 334 335 355 2 350 39 118 107 94 106 110 73 92 109 146 165 163 114
243 235 242 251 256 249 241 242 243 240 243 246 245 247 249 257 262 253 256 268 273 290 293 306 308 313 319 13 354 326 337 347 2 321 227 181 158 137 124 124 123 137 143
308 273 268 269 271 266 260 255 246 243 249 254 253 250 247 244 250 256 243 221 238 240 237 253 276 280 269 296 295 302 316 323 309 274 228 205 193 173 163 165 159 159 155